[TLELIST] Archives

 

Current TLEs

March 26th 2007 PDT

HST 1 20580U 90037B 07084.85114116 .00000356 00000-0 14824-4 0 8378 2 20580 028.4683 013.5289 0003538 289.6400 070.3810 15.00209637727439 ISS (ZARYA) 1 25544U 98067A 07085.43301225 .00026453 00000-0 15475-3 0 8994 2 25544 051.6332 171.5656 0015231 353.7732 108.3483 15.78005277477709 CXO 1 25867U 99040B 07085.66666667 .00000206 00000-0 00000+0 0 504 2 25867 061.4148 091.0388 6115486 285.5708 355.6746 00.37800422 1945 ____________________________________________________________________ These 2-Line ...Continue Reading

Current TLEs

March 25th 2007 PDT

HST 1 20580U 90037B 07082.92186953 +.00000349 +00000-0 +14226-4 0 08392 2 20580 028.4683 026.1064 0003584 267.9889 092.0291 15.00208845727143 ISS (ZARYA) 1 25544U 98067A 07084.48374883 .00027552 00000-0 16138-3 0 8929 2 25544 051.6328 176.4719 0015100 350.6066 115.3578 15.77954348477556 CXO 1 25867U 99040B 07083.00000000 .00000224 00000-0 00000+0 0 491 2 25867 061.3963 091.0983 6113809 285.6399 352.5649 00.37802168 1930 ____________________________________________________________________ These 2-Line ...Continue Reading

Current TLEs

March 24th 2007 PDT

HST 1 20580U 90037B 07082.19007647 .00000366 00000-0 15590-4 0 8353 2 20580 028.4684 030.8773 0003631 259.6844 100.3338 15.00208752727035 ISS (ZARYA) 1 25544U 98067A 07083.53125160 .00015052 00000-0 90396-4 0 8859 2 25544 051.6347 181.3875 0015039 346.9147 104.6728 15.77880814477402 CXO 1 25867U 99040B 07083.00000000 .00000224 00000-0 00000+0 0 491 2 25867 061.3963 091.0983 6113809 285.6399 352.5649 00.37802168 1930 ____________________________________________________________________ These 2-Line ...Continue Reading

Current TLEs

March 23rd 2007 PDT

HST 1 20580U 90037B 07082.19007647 .00000366 00000-0 15590-4 0 8353 2 20580 028.4684 030.8773 0003631 259.6844 100.3338 15.00208752727035 ISS (ZARYA) 1 25544U 98067A 07082.45486131 .00013839 00000-0 83609-4 0 8790 2 25544 051.6344 186.9476 0014722 342.5860 110.6238 15.77842493477234 CXO 1 25867U 99040B 07083.00000000 .00000224 00000-0 00000+0 0 491 2 25867 061.3963 091.0983 6113809 285.6399 352.5649 00.37802168 1930 ____________________________________________________________________ These 2-Line ...Continue Reading

Current TLEs

March 22nd 2007 PDT

HST 1 20580U 90037B 07080.65996494 .00000343 00000-0 13781-4 0 8343 2 20580 028.4669 040.8566 0003705 244.6905 115.3292 15.00208075726800 ISS (ZARYA) 1 25544U 98067A 07081.44695174 .00013794 00000-0 83468-4 0 8723 2 25544 051.6348 192.1525 0014629 338.6659 145.5594 15.77812965477075 CXO 1 25867U 99040B 07080.37500000 .00000320 00000-0 00000+0 0 489 2 25867 061.3726 091.1750 6114003 285.6701 355.2135 00.37808280 1924 ____________________________________________________________________ These 2-Line ...Continue Reading

Current TLEs

March 21st 2007 PDT

HST 1 20580U 90037B 07078.66416733 +.00000392 +00000-0 +17604-4 0 08380 2 20580 028.4667 053.8703 0003704 223.3347 136.6949 15.00207572726501 ISS (ZARYA) 1 25544U 98067A 07080.48219324 .00014700 00000-0 88775-4 0 8651 2 25544 051.6347 197.1356 0014576 334.9263 065.6951 15.77788385476922 CXO 1 25867U 99040B 07080.37500000 .00000320 00000-0 00000+0 0 489 2 25867 061.3726 091.1750 6114003 285.6701 355.2135 00.37808280 1924 ____________________________________________________________________ These 2-Line ...Continue Reading

Current TLEs

March 20th 2007 PDT

HST 1 20580U 90037B 07077.66626843 +.00000406 +00000-0 +18658-4 0 08481 2 20580 028.4666 060.3774 0003748 212.8535 147.1820 15.00207188726352 ISS (ZARYA) 1 25544U 98067A 07079.47696443 .00013473 00000-0 81834-4 0 8586 2 25544 051.6320 202.3312 0014553 330.5186 116.5547 15.77755352476762 CXO 1 25867U 99040B 07077.33333333 .00000400 00000-0 00000+0 0 472 2 25867 061.3444 091.2673 6111067 285.6708 301.2104 00.37810185 1913 ____________________________________________________________________ These 2-Line ...Continue Reading

Current TLEs

March 19th 2007 PDT

HST 1 20580U 90037B 07078.19848125 .00000393 00000-0 17677-4 0 8327 2 20580 028.4668 056.9065 0003758 218.5575 141.4756 15.00207375726438 ISS (ZARYA) 1 25544U 98067A 07078.47060269 .00015876 00000-0 95816-4 0 8524 2 25544 051.6343 207.5271 0014269 326.5592 160.6475 15.77729988476607 CXO 1 25867U 99040B 07077.33333333 .00000400 00000-0 00000+0 0 472 2 25867 061.3444 091.2673 6111067 285.6708 301.2104 00.37810185 1913 ____________________________________________________________________ These 2-Line ...Continue Reading

Current TLEs

March 18th 2007 PDT

HST 1 20580U 90037B 07076.80142273 .00000401 00000-0 18271-4 0 8314 2 20580 028.4666 066.0158 0003739 203.7553 156.2862 15.00206728726222 ISS (ZARYA) 1 25544U 98067A 07077.44890258 .00015858 00000-0 95845-4 0 8453 2 25544 051.6339 212.8037 0014412 322.3799 117.8794 15.77696323476440 CXO 1 25867U 99040B 07077.33333333 .00000400 00000-0 00000+0 0 472 2 25867 061.3444 091.2673 6111067 285.6708 301.2104 00.37810185 1913 ____________________________________________________________________ These 2-Line ...Continue Reading

Current TLEs

March 17th 2007 PDT

HST 1 20580U 90037B 07075.53741650 .00000422 00000-0 19939-4 0 8301 2 20580 028.4665 074.2568 0003820 190.8800 169.1700 15.00206295726031 ISS (ZARYA) 1 25544U 98067A 07076.49251561 .00003326 00000-0 23354-4 0 8380 2 25544 051.6340 217.7446 0014355 316.0737 088.5614 15.77651351476298 CXO 1 25867U 99040B 07075.08333333 .00000396 00000-0 00000+0 0 465 2 25867 061.3262 091.3233 6106266 285.6683 354.9821 00.37805976 1903 ____________________________________________________________________ These 2-Line ...Continue Reading
  • This mailing list is a public mailing list - anyone may join or leave, at any time.
  • This mailing list is announce-only.

International Space Station (ISS) / Hubble Space Telescope (HST) / Chandra X-Ray Observatory Orbital Data via EMAIL

Privacy Policy:

Private list